This is the latest recevied weather packets stored in our database for station/object VE1RCI-13. If no packets are shown the sender has not sent any weather packets the latest 10 day(s).
| Time | Temp. | Humidity | Pressure | Rain* | Wind** | Luminosity | Snow |
|---|---|---|---|---|---|---|---|
| 1777842865 | 8.33° C | 76% | 983.4 hPa | - | - | - | - |
| 1777842253 | 8.33° C | 76% | 984.2 hPa | - | - | - | - |
| 1777841641 | 8.33° C | 76% | 984.8 hPa | - | - | - | - |
| 1777841029 | 8.33° C | 77% | 985.7 hPa | - | - | - | - |
| 1777840417 | 8.33° C | 77% | 985.7 hPa | - | - | - | - |
| 1777839804 | 8.33° C | 77% | 986.3 hPa | - | - | - | - |
| 1777839192 | 7.78° C | 78% | 986.6 hPa | - | - | - | - |
| 1777838580 | 7.78° C | 78% | 987.3 hPa | - | - | - | - |
| 1777837968 | 7.78° C | 78% | 987.8 hPa | - | - | - | - |
| 1777837356 | 7.78° C | 79% | 988.3 hPa | - | - | - | - |
| 1777837344 | 7.78° C | 79% | 988.1 hPa | - | - | - | - |
| 1777836018 | 7.78° C | 79% | 989.5 hPa | - | - | - | - |
| 1777835406 | 7.78° C | 79% | 989.8 hPa | - | - | - | - |
| 1777834794 | 7.78° C | 78% | 990.7 hPa | - | - | - | - |
| 1777834182 | 7.78° C | 78% | 991.4 hPa | - | - | - | - |
| 1777833570 | 8.33° C | 78% | 992.3 hPa | - | - | - | - |
| 1777832958 | 8.33° C | 78% | 992.8 hPa | - | - | - | - |
| 1777832345 | 8.33° C | 78% | 993.1 hPa | - | - | - | - |
| 1777831733 | 8.33° C | 78% | 993.5 hPa | - | - | - | - |
| 1777831121 | 8.33° C | 78% | 994.1 hPa | - | - | - | - |
| 1777830509 | 8.33° C | 77% | 994.6 hPa | - | - | - | - |
| 1777829897 | 8.89° C | 77% | 995.1 hPa | - | - | - | - |
| 1777829285 | 8.89° C | 77% | 995.7 hPa | - | - | - | - |
| 1777828672 | 9.44° C | 76% | 996.2 hPa | - | - | - | - |
| 1777828061 | 8.89° C | 76% | 997 hPa | - | - | - | - |
* Rain since midnight (hover to see other rain measurements)
** Current wind speed in m/s (hover to see current wind gust speed)